Flag for U.S.A. Weather past 2 weeks in Topeka, Kansas, U.S.A.

Now
43 °F

Overcast.


Feels Like: 34 °F
Forecast: 32 / 48 °F
Wind: 21 mph from North

Location: Philip Billard Municipal Airport

Current Time: Jan 29, 2015 at 2:49:35 PM

Latest Report: Jan 29, 2015 at 1:53 PM


Visibility: 10 mi

Pressure: 30.42 "Hg

Humidity: 53%

Dew point: 27 °F

Location of TopekaLocation

Historic Weather in Topeka — Graph

°F

Topeka temperature yesterday

Maximum temperature yesterday: 77 °F (at 2:53 PM)
Minimum temperature yesterday: 33 °F (at 6:53 AM)
Average temperature yesterday: 54 °F

Past Weeks' High & Low Weather Summary

 TemperatureHumidityPressure
High77 °F (Jan 28, 2:53 PM)96% (Jan 26, 3:53 AM)30.54 "Hg (Jan 26, 3:53 AM)
Low15 °F (Jan 15, 1:53 AM)20% (Jan 16, 2:53 PM)29.67 "Hg (Jan 28, 2:53 PM)
Average40 °F61%30.08 "Hg
* Reported Jan 14 1:53 PM — Jan 29 1:53 PM, Topeka, Weather by CustomWeather, © 2014

Note: Actual official high and low records may vary slightly from our data, if they occured in-between our weather recording intervals... More about our weather records

Advertising

Topeka weather history for previous 24 hours

 ConditionsComfort  
Time TempWeatherWind HumidityBarometerVisibility
1:53 PM
Jan 29
43 °FOvercast.21 mph53%30.42 "Hg10 mi
12:53 PM44 °FOvercast.23 mph55%30.42 "Hg10 mi
11:53 AM42 °FOvercast.21 mph57%30.42 "Hg10 mi
10:53 AM42 °FOvercast.22 mph55%30.39 "Hg10 mi
9:53 AM41 °FOvercast.20 mph58%30.37 "Hg10 mi
8:53 AM40 °FOvercast.18 mph65%30.31 "Hg10 mi
7:53 AM40 °FOvercast.17 mph63%30.28 "Hg10 mi
6:53 AM39 °FOvercast.18 mph65%30.26 "Hg10 mi
5:53 AM40 °FOvercast.23 mph65%30.22 "Hg10 mi
4:53 AM40 °FOvercast.20 mph73%30.17 "Hg10 mi
3:53 AM43 °FOvercast.20 mph68%30.12 "Hg10 mi
2:53 AM47 °FOvercast.17 mph66%30.08 "Hg10 mi
1:53 AM49 °FClear.15 mph59%30.00 "Hg10 mi
12:53 AM51 °FClear.9 mph54%29.95 "Hg10 mi
11:53 PM
Jan 28
53 °FClear.15 mph48%29.91 "Hg10 mi
10:53 PM56 °FClear.15 mph44%29.87 "Hg10 mi
9:53 PM52 °FClear.8 mph50%29.83 "Hg10 mi
8:53 PM57 °FClear.5 mph42%29.78 "Hg10 mi
7:53 PM60 °FClear.3 mph39%29.76 "Hg10 mi
6:53 PM60 °FClear.7 mph41%29.75 "Hg10 mi
5:53 PM67 °FClear.12 mph33%29.73 "Hg10 mi
4:53 PM70 °FSunny.13 mph32%29.70 "Hg10 mi
3:53 PM73 °FSunny.22 mph28%29.70 "Hg10 mi
2:53 PM77 °FSunny.18 mph24%29.67 "Hg10 mi
Weather by CustomWeather, © 2014

See weather overviewHow to use our weather pages